{"data":{"norad_id":67603,"intl_designator":"2026-018Q","name":"STARLINK-36626","alt_names":[],"object_type":"PAYLOAD","status":"ACTIVE","operator":null,"country":"US","launch_date":"2026-01-29","launch_site_code":"AFWTR","launch_vehicle":null,"mission":null,"orbit_class":"UNKNOWN","rcs_meters":null,"size_class":null,"mass_kg":null,"dimensions":null,"purposes":["comms"],"wikipedia_slug":null,"has_3d_model":false,"image_url":null,"decayed_at":null,"tle_current":{"epoch":"2026-05-25T03:22:34.549824Z","epoch_age_seconds":56261,"freshness":"FRESH","line1":"1 67603U 26018Q   26145.14067766  .00013571  00000+0  42193-3 0  9992","line2":"2 67603  97.2840 210.3167 0000344 342.5488  17.5743 15.33446603 19056","mean_motion":15.33446603,"eccentricity":3.44e-5,"inclination_deg":97.284,"raan_deg":210.3167,"arg_perigee_deg":342.5488,"mean_anomaly_deg":17.5743,"bstar":0.00042193,"rev_number":1905,"period_min":93.906106491274,"perigee_km":465.30298264816,"apogee_km":465.77382751603,"semimajor_km":6843.6754050821,"source":"CELESTRAK","updated_at":"2026-05-25T13:38:21.645997Z"}}}